STARLINK-35364

Last updated on Mon Oct 20 2025 00:02:07 GMT+0000 (Coordinated Universal Time)

1 65840U 25221T 25292.25002315 -.01548987 00000+0 -28449-1 0 9994 2 65840 53.1601 27.7962 0001072 87.0902 266.5576 15.51576957 4439
UTC large
Height (km)
Speed (km/s)
/
Latitude / Longitude
Inclination (degrees)
Orbital Period (minutes)
Azimuth
Elevation
Range (km)
Doppler Factor

Next 0 passes for location: London (51.5072 / 0.1276)

Sorry there are no passes over London.